Time,TemperatureF,DewpointF,PressureIn,WindDirection,WindDirectionDegrees,WindSpeedMPH,WindSpeedGustMPH,Humidity,HourlyPrecipIn,Conditions,Clouds,dailyrainin,SoftwareType,DateUTC
2013-09-06 00:01:00,56.2,47.7,30.15,NNE,25,0.0,0.0,73,0.00,,,0.00,VWS V14.01,2013-09-06 04:01:00,
2013-09-06 00:02:00,56.1,47.6,30.15,NNE,25,0.0,0.0,73,0.00,,,0.00,VWS V14.01,2013-09-06 04:02:00,
2013-09-06 00:07:00,56.0,47.8,30.15,NNE,25,0.0,0.0,74,0.00,,,0.00,VWS V14.01,2013-09-06 04:07:00,
2013-09-06 00:12:00,56.0,47.5,30.15,NNE,25,0.0,0.0,73,0.00,,,0.00,VWS V14.01,2013-09-06 04:12:00,
2013-09-06 00:17:00,55.9,48.1,30.15,NNE,25,0.0,0.0,75,0.00,,,0.00,VWS V14.01,2013-09-06 04:17:00,
2013-09-06 00:22:00,55.7,47.9,30.15,NNE,25,0.0,0.0,75,0.00,,,0.00,VWS V14.01,2013-09-06 04:22:00,
2013-09-06 00:27:00,55.7,47.9,30.15,NNE,25,0.0,0.0,75,0.00,,,0.00,VWS V14.01,2013-09-06 04:27:00,
2013-09-06 00:32:00,55.6,47.8,30.15,NNE,25,0.0,0.0,75,0.00,,,0.00,VWS V14.01,2013-09-06 04:32:00,
2013-09-06 00:37:00,55.5,47.7,30.15,NNE,25,0.0,0.0,75,0.00,,,0.00,VWS V14.01,2013-09-06 04:37:00,
2013-09-06 00:42:00,55.3,47.9,30.15,NNE,25,0.0,0.0,76,0.00,,,0.00,VWS V14.01,2013-09-06 04:42:00,
2013-09-06 00:47:00,55.2,47.8,30.16,NNE,25,0.0,0.0,76,0.00,,,0.00,VWS V14.01,2013-09-06 04:47:00,
2013-09-06 00:52:00,55.0,47.6,30.16,NNE,25,0.0,0.0,76,0.00,,,0.00,VWS V14.01,2013-09-06 04:52:00,
2013-09-06 00:57:00,54.9,47.5,30.16,NNE,25,0.0,0.0,76,0.00,,,0.00,VWS V14.01,2013-09-06 04:57:00,
2013-09-06 01:02:00,54.7,47.3,30.16,NNE,25,0.0,0.0,76,0.00,,,0.00,VWS V14.01,2013-09-06 05:02:00,
2013-09-06 01:07:00,54.6,47.5,30.16,NNE,25,0.0,0.0,77,0.00,,,0.00,VWS V14.01,2013-09-06 05:07:00,
2013-09-06 01:12:00,54.4,47.3,30.16,NNE,25,0.0,0.0,77,0.00,,,0.00,VWS V14.01,2013-09-06 05:12:00,
2013-09-06 01:17:00,54.3,47.2,30.16,NNE,25,0.0,0.0,77,0.00,,,0.00,VWS V14.01,2013-09-06 05:17:00,
2013-09-06 01:22:00,54.1,47.1,30.16,NNE,25,0.0,0.0,77,0.00,,,0.00,VWS V14.01,2013-09-06 05:22:00,
2013-09-06 01:27:00,54.0,47.3,30.16,NNE,28,0.0,0.0,78,0.00,,,0.00,VWS V14.01,2013-09-06 05:27:00,
2013-09-06 01:32:00,53.8,46.8,30.16,NNE,28,0.0,0.0,77,0.00,,,0.00,VWS V14.01,2013-09-06 05:32:00,
2013-09-06 01:37:00,53.6,46.9,30.16,NNE,28,0.0,0.0,78,0.00,,,0.00,VWS V14.01,2013-09-06 05:37:00,
2013-09-06 01:42:00,53.5,46.8,30.16,NNE,28,0.0,0.0,78,0.00,,,0.00,VWS V14.01,2013-09-06 05:42:00,
2013-09-06 01:47:00,53.3,46.6,30.17,NNE,28,0.0,0.0,78,0.00,,,0.00,VWS V14.01,2013-09-06 05:47:00,
2013-09-06 01:52:00,53.2,46.5,30.17,NNE,28,0.0,0.0,78,0.00,,,0.00,VWS V14.01,2013-09-06 05:52:00,
2013-09-06 01:57:00,53.0,46.7,30.17,NNE,28,0.0,0.0,79,0.00,,,0.00,VWS V14.01,2013-09-06 05:57:00,
2013-09-06 02:02:00,52.8,46.5,30.16,NNE,28,0.0,0.0,79,0.00,,,0.00,VWS V14.01,2013-09-06 06:02:00,
2013-09-06 02:07:00,52.6,46.6,30.16,NNE,28,0.0,0.0,80,0.00,,,0.00,VWS V14.01,2013-09-06 06:07:00,
2013-09-06 02:12:00,52.4,46.4,30.16,NNE,28,0.0,0.0,80,0.00,,,0.00,VWS V14.01,2013-09-06 06:12:00,
2013-09-06 02:17:00,52.3,46.3,30.17,NNE,28,0.0,0.0,80,0.00,,,0.00,VWS V14.01,2013-09-06 06:17:00,
2013-09-06 02:22:00,52.1,46.5,30.17,NNE,28,0.0,0.0,81,0.00,,,0.00,VWS V14.01,2013-09-06 06:22:00,
2013-09-06 02:26:00,51.9,46.3,30.17,NNE,31,0.0,0.0,81,0.00,,,0.00,VWS V14.01,2013-09-06 06:26:00,
2013-09-06 02:31:00,51.7,46.1,30.17,NNE,31,0.0,0.0,81,0.00,,,0.00,VWS V14.01,2013-09-06 06:31:00,
2013-09-06 02:36:00,51.5,46.2,30.17,NNE,31,0.0,0.0,82,0.00,,,0.00,VWS V14.01,2013-09-06 06:36:00,
2013-09-06 02:41:00,51.4,46.1,30.17,NNE,31,0.0,0.0,82,0.00,,,0.00,VWS V14.01,2013-09-06 06:41:00,
2013-09-06 02:46:00,51.2,45.9,30.17,NNE,31,0.0,0.0,82,0.00,,,0.00,VWS V14.01,2013-09-06 06:46:00,
2013-09-06 02:51:00,50.9,45.9,30.17,NNE,31,0.0,0.0,83,0.00,,,0.00,VWS V14.01,2013-09-06 06:51:00,
2013-09-06 02:56:00,50.7,46.0,30.17,NNE,31,0.0,0.0,84,0.00,,,0.00,VWS V14.01,2013-09-06 06:56:00,
2013-09-06 03:01:00,50.5,45.8,30.17,NNE,31,0.0,0.0,84,0.00,,,0.00,VWS V14.01,2013-09-06 07:01:00,
2013-09-06 03:06:00,50.2,45.9,30.17,NNE,31,0.0,1.0,85,0.00,,,0.00,VWS V14.01,2013-09-06 07:06:00,
2013-09-06 03:11:00,50.0,46.0,30.17,NNE,31,0.0,0.0,86,0.00,,,0.00,VWS V14.01,2013-09-06 07:11:00,
2013-09-06 03:16:00,49.7,45.7,30.17,NNE,31,0.0,0.0,86,0.00,,,0.00,VWS V14.01,2013-09-06 07:16:00,
2013-09-06 03:21:00,49.6,45.9,30.17,NNE,31,0.0,0.0,87,0.00,,,0.00,VWS V14.01,2013-09-06 07:21:00,
2013-09-06 03:26:00,49.5,45.5,30.17,NNE,31,0.0,0.0,86,0.00,,,0.00,VWS V14.01,2013-09-06 07:26:00,
2013-09-06 03:31:00,49.4,45.4,30.17,NNE,31,0.0,0.0,86,0.00,,,0.00,VWS V14.01,2013-09-06 07:31:00,
2013-09-06 03:36:00,49.2,45.5,30.17,NNE,31,0.0,0.0,87,0.00,,,0.00,VWS V14.01,2013-09-06 07:36:00,
2013-09-06 03:41:00,49.0,45.3,30.17,NNE,31,0.0,0.0,87,0.00,,,0.00,VWS V14.01,2013-09-06 07:41:00,
2013-09-06 03:46:00,48.8,45.4,30.17,NNE,31,0.0,0.0,88,0.00,,,0.00,VWS V14.01,2013-09-06 07:46:00,
2013-09-06 03:51:00,48.8,45.4,30.17,NNE,31,0.0,0.0,88,0.00,,,0.00,VWS V14.01,2013-09-06 07:51:00,
2013-09-06 03:56:00,48.7,45.3,30.17,NNE,31,0.0,0.0,88,0.00,,,0.00,VWS V14.01,2013-09-06 07:56:00,
2013-09-06 04:01:00,48.6,45.2,30.17,NNE,31,0.0,0.0,88,0.00,,,0.00,VWS V14.01,2013-09-06 08:01:00,
2013-09-06 04:06:00,48.6,45.2,30.17,NNE,31,0.0,0.0,88,0.00,,,0.00,VWS V14.01,2013-09-06 08:06:00,
2013-09-06 04:11:00,48.5,45.1,30.17,NNE,31,0.0,0.0,88,0.00,,,0.00,VWS V14.01,2013-09-06 08:11:00,
2013-09-06 04:16:00,48.4,45.0,30.17,NNE,31,0.0,0.0,88,0.00,,,0.00,VWS V14.01,2013-09-06 08:16:00,
2013-09-06 04:21:00,48.3,44.9,30.17,NNE,31,0.0,0.0,88,0.00,,,0.00,VWS V14.01,2013-09-06 08:21:00,
2013-09-06 04:26:00,48.2,44.8,30.17,NNE,31,0.0,0.0,88,0.00,,,0.00,VWS V14.01,2013-09-06 08:26:00,
2013-09-06 04:31:00,48.1,44.7,30.17,NNE,31,0.0,0.0,88,0.00,,,0.00,VWS V14.01,2013-09-06 08:31:00,
2013-09-06 04:36:00,48.1,44.7,30.17,NNE,31,0.0,0.0,88,0.00,,,0.00,VWS V14.01,2013-09-06 08:36:00,
2013-09-06 04:41:00,48.0,44.9,30.17,NNE,31,0.0,0.0,89,0.00,,,0.00,VWS V14.01,2013-09-06 08:41:00,
2013-09-06 04:46:00,47.9,44.8,30.18,NNE,31,0.0,0.0,89,0.00,,,0.00,VWS V14.01,2013-09-06 08:46:00,
2013-09-06 04:51:00,47.9,44.8,30.18,NNE,31,0.0,0.0,89,0.00,,,0.00,VWS V14.01,2013-09-06 08:51:00,
2013-09-06 04:56:00,47.8,44.7,30.18,NNE,31,0.0,0.0,89,0.00,,,0.00,VWS V14.01,2013-09-06 08:56:00,
2013-09-06 05:01:00,47.7,44.6,30.18,NNE,31,0.0,0.0,89,0.00,,,0.00,VWS V14.01,2013-09-06 09:01:00,
2013-09-06 05:06:00,47.7,44.6,30.18,NNE,31,0.0,0.0,89,0.00,,,0.00,VWS V14.01,2013-09-06 09:06:00,
2013-09-06 05:11:00,47.6,44.5,30.18,NNE,31,0.0,0.0,89,0.00,,,0.00,VWS V14.01,2013-09-06 09:11:00,
2013-09-06 05:16:00,47.5,44.4,30.18,NNE,31,0.0,0.0,89,0.00,,,0.00,VWS V14.01,2013-09-06 09:16:00,
2013-09-06 05:21:00,47.4,44.3,30.18,NNE,31,0.0,0.0,89,0.00,,,0.00,VWS V14.01,2013-09-06 09:21:00,
2013-09-06 05:26:00,47.4,44.3,30.18,NNE,31,0.0,0.0,89,0.00,,,0.00,VWS V14.01,2013-09-06 09:26:00,
2013-09-06 05:31:00,47.3,44.2,30.18,NNE,31,0.0,0.0,89,0.00,,,0.00,VWS V14.01,2013-09-06 09:31:00,
2013-09-06 05:36:00,47.2,44.1,30.18,NNE,31,0.0,0.0,89,0.00,,,0.00,VWS V14.01,2013-09-06 09:36:00,
2013-09-06 05:41:00,47.1,44.0,30.18,NNE,31,0.0,0.0,89,0.00,,,0.00,VWS V14.01,2013-09-06 09:41:00,
2013-09-06 05:46:00,47.0,43.9,30.19,NNE,31,0.0,0.0,89,0.00,,,0.00,VWS V14.01,2013-09-06 09:46:00,
2013-09-06 05:51:00,46.9,44.1,30.19,NNE,31,0.0,0.0,90,0.00,,,0.00,VWS V14.01,2013-09-06 09:51:00,
2013-09-06 05:56:00,46.9,44.1,30.19,NNE,31,0.0,0.0,90,0.00,,,0.00,VWS V14.01,2013-09-06 09:56:00,
2013-09-06 06:01:00,46.8,44.0,30.19,NNE,31,0.0,0.0,90,0.00,,,0.00,VWS V14.01,2013-09-06 10:01:00,
2013-09-06 06:06:00,46.7,43.9,30.19,NNE,31,0.0,0.0,90,0.00,,,0.00,VWS V14.01,2013-09-06 10:06:00,
2013-09-06 06:11:00,46.7,43.9,30.19,NNE,31,0.0,0.0,90,0.00,,,0.00,VWS V14.01,2013-09-06 10:11:00,
2013-09-06 06:16:00,46.6,43.8,30.20,NNE,31,0.0,0.0,90,0.00,,,0.00,VWS V14.01,2013-09-06 10:16:00,
2013-09-06 06:21:00,46.6,43.8,30.20,NNE,31,0.0,0.0,90,0.00,,,0.00,VWS V14.01,2013-09-06 10:21:00,
2013-09-06 06:26:00,46.5,43.7,30.20,NNE,31,0.0,0.0,90,0.00,,,0.00,VWS V14.01,2013-09-06 10:26:00,
2013-09-06 06:31:00,46.5,43.7,30.20,NNE,31,0.0,0.0,90,0.00,,,0.00,VWS V14.01,2013-09-06 10:31:00,
2013-09-06 06:36:00,46.4,43.9,30.20,NNE,31,0.0,0.0,91,0.00,,,0.00,VWS V14.01,2013-09-06 10:36:00,
2013-09-06 06:41:00,46.5,44.0,30.20,NNE,31,0.0,0.0,91,0.00,,,0.00,VWS V14.01,2013-09-06 10:41:00,
2013-09-06 06:46:00,46.5,44.0,30.20,NNE,31,0.0,0.0,91,0.00,,,0.00,VWS V14.01,2013-09-06 10:46:00,
2013-09-06 06:51:00,46.5,44.0,30.20,NNE,31,0.0,0.0,91,0.00,,,0.00,VWS V14.01,2013-09-06 10:51:00,
2013-09-06 06:56:00,46.5,44.0,30.20,NNE,31,0.0,0.0,91,0.00,,,0.00,VWS V14.01,2013-09-06 10:56:00,
2013-09-06 07:01:00,46.6,44.1,30.20,NNE,31,0.0,0.0,91,0.00,,,0.00,VWS V14.01,2013-09-06 11:01:00,
2013-09-06 07:06:00,46.7,44.2,30.20,NNE,31,0.0,0.0,91,0.00,,,0.00,VWS V14.01,2013-09-06 11:06:00,
2013-09-06 07:11:00,46.7,44.2,30.20,NNE,31,0.0,0.0,91,0.00,,,0.00,VWS V14.01,2013-09-06 11:11:00,
2013-09-06 07:16:00,46.7,44.5,30.21,NNE,31,0.0,0.0,92,0.00,,,0.00,VWS V14.01,2013-09-06 11:16:00,
2013-09-06 07:21:00,46.7,44.5,30.21,NNE,31,0.0,0.0,92,0.00,,,0.00,VWS V14.01,2013-09-06 11:21:00,
2013-09-06 07:26:00,46.8,44.6,30.21,NNE,31,0.0,0.0,92,0.00,,,0.00,VWS V14.01,2013-09-06 11:26:00,
2013-09-06 07:31:00,46.9,44.7,30.21,NNE,31,0.0,0.0,92,0.00,,,0.00,VWS V14.01,2013-09-06 11:31:00,
2013-09-06 07:36:00,47.0,44.8,30.21,NNE,31,0.0,0.0,92,0.00,,,0.00,VWS V14.01,2013-09-06 11:36:00,
2013-09-06 07:41:00,47.3,45.4,30.21,NNE,31,0.0,0.0,93,0.00,,,0.00,VWS V14.01,2013-09-06 11:41:00,
2013-09-06 07:46:00,47.4,45.5,30.22,NNE,31,0.0,0.0,93,0.00,,,0.00,VWS V14.01,2013-09-06 11:46:00,
2013-09-06 07:51:00,47.6,45.7,30.22,NNE,31,0.0,0.0,93,0.00,,,0.00,VWS V14.01,2013-09-06 11:51:00,
2013-09-06 07:56:00,47.8,45.9,30.22,NNE,31,0.0,0.0,93,0.00,,,0.00,VWS V14.01,2013-09-06 11:56:00,
2013-09-06 08:01:00,47.9,46.0,30.22,NNE,31,0.0,0.0,93,0.00,,,0.00,VWS V14.01,2013-09-06 12:01:00,
2013-09-06 08:06:00,48.1,46.2,30.22,NNE,31,0.0,0.0,93,0.00,,,0.00,VWS V14.01,2013-09-06 12:06:00,
2013-09-06 08:11:00,48.2,46.3,30.22,NNE,31,0.0,0.0,93,0.00,,,0.00,VWS V14.01,2013-09-06 12:11:00,
2013-09-06 08:16:00,48.3,46.4,30.22,NNE,31,0.0,0.0,93,0.00,,,0.00,VWS V14.01,2013-09-06 12:16:00,
2013-09-06 08:21:00,48.4,46.5,30.22,NNE,31,0.0,0.0,93,0.00,,,0.00,VWS V14.01,2013-09-06 12:21:00,
2013-09-06 08:26:00,48.6,46.7,30.22,NNE,31,0.0,0.0,93,0.00,,,0.00,VWS V14.01,2013-09-06 12:26:00,
2013-09-06 08:31:00,48.9,47.0,30.22,NNE,31,0.0,0.0,93,0.00,,,0.00,VWS V14.01,2013-09-06 12:31:00,
2013-09-06 08:36:00,49.1,47.2,30.22,NNE,31,0.0,0.0,93,0.00,,,0.00,VWS V14.01,2013-09-06 12:36:00,
2013-09-06 08:41:00,49.3,47.4,30.22,NNE,31,0.0,0.0,93,0.00,,,0.00,VWS V14.01,2013-09-06 12:41:00,
2013-09-06 08:46:00,49.6,47.4,30.23,NNE,31,0.0,0.0,92,0.00,,,0.00,VWS V14.01,2013-09-06 12:46:00,
2013-09-06 08:51:00,49.8,47.6,30.23,NNE,31,0.0,0.0,92,0.00,,,0.00,VWS V14.01,2013-09-06 12:51:00,
2013-09-06 08:56:00,50.1,47.9,30.23,NNE,33,0.0,2.0,92,0.00,,,0.00,VWS V14.01,2013-09-06 12:56:00,
2013-09-06 09:01:00,50.3,47.8,30.23,NNE,33,0.0,2.0,91,0.00,,,0.00,VWS V14.01,2013-09-06 13:01:00,
2013-09-06 09:06:00,50.5,48.0,30.23,NNE,33,0.0,1.0,91,0.00,,,0.00,VWS V14.01,2013-09-06 13:06:00,
2013-09-06 09:11:00,50.9,47.8,30.23,NNE,33,0.0,1.0,89,0.00,,,0.00,VWS V14.01,2013-09-06 13:11:00,
2013-09-06 09:16:00,51.6,46.9,30.24,East,89,3.0,3.0,84,0.00,,,0.00,VWS V14.01,2013-09-06 13:16:00,
2013-09-06 09:21:00,52.6,46.3,30.24,NE,55,0.0,3.0,79,0.00,,,0.00,VWS V14.01,2013-09-06 13:21:00,
2013-09-06 09:26:00,53.6,46.2,30.24,ENE,57,0.0,3.0,76,0.00,,,0.00,VWS V14.01,2013-09-06 13:26:00,
2013-09-06 09:31:00,54.3,45.5,30.24,NE,55,0.0,3.0,72,0.00,,,0.00,VWS V14.01,2013-09-06 13:31:00,
2013-09-06 09:36:00,54.8,45.2,30.24,NE,55,0.0,1.0,70,0.00,,,0.00,VWS V14.01,2013-09-06 13:36:00,
2013-09-06 09:41:00,55.2,45.6,30.24,NE,55,1.0,2.0,70,0.00,,,0.00,VWS V14.01,2013-09-06 13:41:00,
2013-09-06 09:46:00,55.6,45.2,30.24,NNW,336,0.0,2.0,68,0.00,,,0.00,VWS V14.01,2013-09-06 13:46:00,
2013-09-06 09:51:00,55.9,45.1,30.24,North,350,0.0,2.0,67,0.00,,,0.00,VWS V14.01,2013-09-06 13:51:00,
2013-09-06 09:56:00,56.2,45.4,30.24,NNW,332,0.0,2.0,67,0.00,,,0.00,VWS V14.01,2013-09-06 13:56:00,
2013-09-06 10:01:00,56.6,45.0,30.24,NW,323,0.0,4.0,65,0.00,,,0.00,VWS V14.01,2013-09-06 14:01:00,
2013-09-06 10:06:00,57.1,45.5,30.24,NW,320,1.0,2.0,65,0.00,,,0.00,VWS V14.01,2013-09-06 14:06:00,
2013-09-06 10:11:00,57.8,44.9,30.24,North,5,0.0,2.0,62,0.00,,,0.00,VWS V14.01,2013-09-06 14:11:00,
2013-09-06 10:16:00,58.5,46.0,30.24,North,5,0.0,1.0,63,0.00,,,0.00,VWS V14.01,2013-09-06 14:16:00,
2013-09-06 10:21:00,58.9,44.6,30.24,NNE,17,0.0,1.0,59,0.00,,,0.00,VWS V14.01,2013-09-06 14:21:00,
2013-09-06 10:26:00,59.5,45.2,30.24,North,355,0.0,3.0,59,0.00,,,0.00,VWS V14.01,2013-09-06 14:26:00,
2013-09-06 10:31:00,60.0,44.3,30.24,North,9,0.0,3.0,56,0.00,,,0.00,VWS V14.01,2013-09-06 14:31:00,
2013-09-06 10:36:00,60.4,44.7,30.24,North,9,0.0,1.0,56,0.00,,,0.00,VWS V14.01,2013-09-06 14:36:00,
2013-09-06 10:41:00,60.7,45.8,30.24,NNE,13,0.0,1.0,58,0.00,,,0.00,VWS V14.01,2013-09-06 14:41:00,
2013-09-06 10:46:00,60.9,46.0,30.24,NNW,348,0.0,1.0,58,0.00,,,0.00,VWS V14.01,2013-09-06 14:46:00,
2013-09-06 10:51:00,61.3,46.0,30.24,NNE,20,1.0,2.0,57,0.00,,,0.00,VWS V14.01,2013-09-06 14:51:00,
2013-09-06 10:56:00,61.4,45.6,30.24,NE,43,0.0,5.0,56,0.00,,,0.00,VWS V14.01,2013-09-06 14:56:00,
2013-09-06 11:01:00,61.3,45.5,30.24,NE,46,0.0,5.0,56,0.00,,,0.00,VWS V14.01,2013-09-06 15:01:00,
2013-09-06 11:05:00,61.1,44.3,30.24,NE,46,0.0,3.0,54,0.00,,,0.00,VWS V14.01,2013-09-06 15:05:00,
2013-09-06 11:10:00,61.2,44.4,30.24,NE,34,1.0,3.0,54,0.00,,,0.00,VWS V14.01,2013-09-06 15:10:00,
2013-09-06 11:15:00,61.4,45.1,30.24,WNW,300,0.0,6.0,55,0.00,,,0.00,VWS V14.01,2013-09-06 15:15:00,
2013-09-06 11:20:00,61.9,44.1,30.24,WNW,299,1.0,6.0,52,0.00,,,0.00,VWS V14.01,2013-09-06 15:20:00,
2013-09-06 11:25:00,62.2,44.4,30.24,WNW,285,0.0,4.0,52,0.00,,,0.00,VWS V14.01,2013-09-06 15:25:00,
2013-09-06 11:30:00,62.5,44.7,30.25,NNE,32,0.0,4.0,52,0.00,,,0.00,VWS V14.01,2013-09-06 15:30:00,
2013-09-06 11:35:00,62.7,43.8,30.25,NW,316,1.0,5.0,50,0.00,,,0.00,VWS V14.01,2013-09-06 15:35:00,
2013-09-06 11:40:00,63.4,45.0,30.25,NNE,20,1.0,5.0,51,0.00,,,0.00,VWS V14.01,2013-09-06 15:40:00,
2013-09-06 11:45:00,63.6,43.6,30.25,NNE,18,0.0,2.0,48,0.00,,,0.00,VWS V14.01,2013-09-06 15:45:00,
2013-09-06 11:50:00,63.8,44.8,30.25,NNE,14,0.0,2.0,50,0.00,,,0.00,VWS V14.01,2013-09-06 15:50:00,
2013-09-06 11:55:00,63.8,44.3,30.25,NNE,22,0.0,4.0,49,0.00,,,0.00,VWS V14.01,2013-09-06 15:55:00,
2013-09-06 12:00:00,64.0,42.8,30.24,NE,41,1.0,4.0,46,0.00,,,0.00,VWS V14.01,2013-09-06 16:00:00,
2013-09-06 12:05:00,64.2,46.2,30.24,NE,41,0.0,1.0,52,0.00,,,0.00,VWS V14.01,2013-09-06 16:05:00,
2013-09-06 12:10:00,64.6,45.6,30.24,NE,42,0.0,3.0,50,0.00,,,0.00,VWS V14.01,2013-09-06 16:10:00,
2013-09-06 12:15:00,64.7,45.1,30.24,NNE,23,2.0,4.0,49,0.00,,,0.00,VWS V14.01,2013-09-06 16:15:00,
2013-09-06 12:20:00,64.6,44.5,30.24,NE,36,0.0,4.0,48,0.00,,,0.00,VWS V14.01,2013-09-06 16:20:00,
2013-09-06 12:25:00,64.6,45.0,30.24,NNE,32,0.0,2.0,49,0.00,,,0.00,VWS V14.01,2013-09-06 16:25:00,
2013-09-06 12:30:00,64.8,45.2,30.23,ESE,111,0.0,2.0,49,0.00,,,0.00,VWS V14.01,2013-09-06 16:30:00,
2013-09-06 12:35:00,64.9,44.2,30.23,ESE,111,0.0,1.0,47,0.00,,,0.00,VWS V14.01,2013-09-06 16:35:00,
2013-09-06 12:40:00,64.7,46.7,30.23,South,179,0.0,2.0,52,0.00,,,0.00,VWS V14.01,2013-09-06 16:40:00,
2013-09-06 12:45:00,64.6,44.5,30.22,SW,224,0.0,4.0,48,0.00,,,0.00,VWS V14.01,2013-09-06 16:45:00,
2013-09-06 12:50:00,64.5,44.9,30.22,SW,224,0.0,4.0,49,0.00,,,0.00,VWS V14.01,2013-09-06 16:50:00,
2013-09-06 12:55:00,64.4,44.8,30.22,SW,223,1.0,2.0,49,0.00,,,0.00,VWS V14.01,2013-09-06 16:55:00,
2013-09-06 13:00:00,64.4,45.4,30.22,West,265,1.0,3.0,50,0.00,,,0.00,VWS V14.01,2013-09-06 17:00:00,
2013-09-06 13:05:00,64.3,44.8,30.22,WNW,285,0.0,3.0,49,0.00,,,0.00,VWS V14.01,2013-09-06 17:05:00,
2013-09-06 13:10:00,64.3,44.2,30.22,NNW,338,1.0,4.0,48,0.00,,,0.00,VWS V14.01,2013-09-06 17:10:00,
2013-09-06 13:15:00,64.0,43.4,30.22,West,266,1.0,5.0,47,0.00,,,0.00,VWS V14.01,2013-09-06 17:15:00,
2013-09-06 13:20:00,63.8,44.8,30.22,WSW,248,0.0,5.0,50,0.00,,,0.00,VWS V14.01,2013-09-06 17:20:00,
2013-09-06 13:25:00,63.8,45.3,30.22,ESE,110,1.0,2.0,51,0.00,,,0.00,VWS V14.01,2013-09-06 17:25:00,
2013-09-06 13:30:00,63.9,43.8,30.21,ESE,119,0.0,2.0,48,0.00,,,0.00,VWS V14.01,2013-09-06 17:30:00,
2013-09-06 13:35:00,63.9,44.4,30.21,NNW,344,0.0,2.0,49,0.00,,,0.00,VWS V14.01,2013-09-06 17:35:00,
2013-09-06 13:40:00,64.1,45.6,30.21,NW,323,1.0,2.0,51,0.00,,,0.00,VWS V14.01,2013-09-06 17:40:00,
2013-09-06 13:45:00,64.1,44.0,30.21,SSE,156,3.0,3.0,48,0.00,,,0.00,VWS V14.01,2013-09-06 17:45:00,
2013-09-06 13:50:00,64.1,44.0,30.21,ENE,74,0.0,3.0,48,0.00,,,0.00,VWS V14.01,2013-09-06 17:50:00,
2013-09-06 13:55:00,64.1,44.0,30.21,WNW,282,2.0,4.0,48,0.00,,,0.00,VWS V14.01,2013-09-06 17:55:00,
2013-09-06 14:00:00,64.1,44.6,30.21,WNW,282,0.0,4.0,49,0.00,,,0.00,VWS V14.01,2013-09-06 18:00:00,
2013-09-06 14:05:00,64.1,44.0,30.21,WNW,292,0.0,5.0,48,0.00,,,0.00,VWS V14.01,2013-09-06 18:05:00,
2013-09-06 14:10:00,64.1,45.6,30.21,WNW,292,0.0,5.0,51,0.00,,,0.00,VWS V14.01,2013-09-06 18:10:00,
2013-09-06 14:15:00,64.2,44.7,30.21,NW,317,3.0,3.0,49,0.00,,,0.00,VWS V14.01,2013-09-06 18:15:00,
2013-09-06 14:20:00,64.2,42.4,30.20,WNW,292,0.0,7.0,45,0.00,,,0.00,VWS V14.01,2013-09-06 18:20:00,
2013-09-06 14:25:00,64.0,43.4,30.20,SSW,193,0.0,3.0,47,0.00,,,0.00,VWS V14.01,2013-09-06 18:25:00,
2013-09-06 14:30:00,64.0,43.4,30.20,NW,317,3.0,7.0,47,0.00,,,0.00,VWS V14.01,2013-09-06 18:30:00,
2013-09-06 14:35:00,64.0,43.4,30.19,WNW,290,4.0,6.0,47,0.00,,,0.00,VWS V14.01,2013-09-06 18:35:00,
2013-09-06 14:40:00,64.1,43.5,30.19,WNW,288,0.0,6.0,47,0.00,,,0.00,VWS V14.01,2013-09-06 18:40:00,
2013-09-06 14:45:00,64.2,43.0,30.19,WNW,283,1.0,2.0,46,0.00,,,0.00,VWS V14.01,2013-09-06 18:45:00,
2013-09-06 14:50:00,64.2,42.4,30.19,West,277,1.0,5.0,45,0.00,,,0.00,VWS V14.01,2013-09-06 18:50:00,
2013-09-06 14:55:00,64.3,43.7,30.19,SE,140,1.0,3.0,47,0.00,,,0.00,VWS V14.01,2013-09-06 18:55:00,
2013-09-06 15:00:00,64.4,42.6,30.19,West,265,4.0,4.0,45,0.00,,,0.00,VWS V14.01,2013-09-06 19:00:00,
2013-09-06 15:05:00,64.5,42.1,30.19,WNW,289,2.0,5.0,44,0.00,,,0.00,VWS V14.01,2013-09-06 19:05:00,
2013-09-06 15:10:00,64.5,42.7,30.19,WNW,288,0.0,5.0,45,0.00,,,0.00,VWS V14.01,2013-09-06 19:10:00,
2013-09-06 15:15:00,64.6,42.2,30.19,SSE,158,0.0,4.0,44,0.00,,,0.00,VWS V14.01,2013-09-06 19:15:00,
2013-09-06 15:20:00,64.5,42.1,30.18,West,269,2.0,5.0,44,0.00,,,0.00,VWS V14.01,2013-09-06 19:20:00,
2013-09-06 15:25:00,64.7,42.9,30.18,NW,310,0.0,2.0,45,0.00,,,0.00,VWS V14.01,2013-09-06 19:25:00,
2013-09-06 15:30:00,64.8,43.0,30.18,NW,313,0.0,2.0,45,0.00,,,0.00,VWS V14.01,2013-09-06 19:30:00,
2013-09-06 15:35:00,64.9,42.5,30.18,NW,313,0.0,2.0,44,0.00,,,0.00,VWS V14.01,2013-09-06 19:35:00,
2013-09-06 15:40:00,65.0,42.6,30.18,NW,311,0.0,3.0,44,0.00,,,0.00,VWS V14.01,2013-09-06 19:40:00,
2013-09-06 15:45:00,65.1,42.1,30.18,West,260,2.0,6.0,43,0.00,,,0.00,VWS V14.01,2013-09-06 19:45:00,
2013-09-06 15:50:00,65.2,42.2,30.17,WNW,286,0.0,7.0,43,0.00,,,0.00,VWS V14.01,2013-09-06 19:50:00,
2013-09-06 15:55:00,65.3,41.0,30.17,WNW,292,2.0,3.0,41,0.00,,,0.00,VWS V14.01,2013-09-06 19:55:00,
2013-09-06 16:00:00,65.3,42.2,30.17,WNW,292,0.0,3.0,43,0.00,,,0.00,VWS V14.01,2013-09-06 20:00:00,
2013-09-06 16:05:00,65.4,42.3,30.17,WNW,297,1.0,3.0,43,0.00,,,0.00,VWS V14.01,2013-09-06 20:05:00,
2013-09-06 16:10:00,65.5,41.2,30.17,WNW,294,1.0,3.0,41,0.00,,,0.00,VWS V14.01,2013-09-06 20:10:00,
2013-09-06 16:15:00,65.7,42.6,30.17,West,278,3.0,3.0,43,0.00,,,0.00,VWS V14.01,2013-09-06 20:15:00,
2013-09-06 16:20:00,65.7,39.4,30.16,WNW,293,0.0,7.0,38,0.00,,,0.00,VWS V14.01,2013-09-06 20:20:00,
2013-09-06 16:25:00,65.8,42.7,30.16,WNW,300,0.0,1.0,43,0.00,,,0.00,VWS V14.01,2013-09-06 20:25:00,
2013-09-06 16:30:00,66.3,40.6,30.16,WNW,294,0.0,3.0,39,0.00,,,0.00,VWS V14.01,2013-09-06 20:30:00,
2013-09-06 16:35:00,66.6,40.2,30.16,WNW,292,0.0,1.0,38,0.00,,,0.00,VWS V14.01,2013-09-06 20:35:00,
2013-09-06 16:40:00,66.8,39.7,30.16,WNW,292,0.0,1.0,37,0.00,,,0.00,VWS V14.01,2013-09-06 20:40:00,
2013-09-06 16:45:00,67.2,40.1,30.16,WNW,292,1.0,1.0,37,0.00,,,0.00,VWS V14.01,2013-09-06 20:45:00,
2013-09-06 16:50:00,67.2,40.1,30.16,West,260,0.0,1.0,37,0.00,,,0.00,VWS V14.01,2013-09-06 20:50:00,
2013-09-06 16:55:00,67.3,39.5,30.16,West,260,0.0,1.0,36,0.00,,,0.00,VWS V14.01,2013-09-06 20:55:00,
2013-09-06 17:00:00,67.2,40.1,30.16,NW,317,0.0,2.0,37,0.00,,,0.00,VWS V14.01,2013-09-06 21:00:00,
2013-09-06 17:05:00,67.2,39.4,30.16,NW,323,0.0,1.0,36,0.00,,,0.00,VWS V14.01,2013-09-06 21:05:00,
2013-09-06 17:09:00,67.2,37.9,30.16,NNW,327,0.0,3.0,34,0.00,,,0.00,VWS V14.01,2013-09-06 21:09:00,
2013-09-06 17:14:00,67.3,39.5,30.16,NNW,327,0.0,1.0,36,0.00,,,0.00,VWS V14.01,2013-09-06 21:14:00,
2013-09-06 17:19:00,67.5,40.3,30.16,NNW,331,1.0,3.0,37,0.00,,,0.00,VWS V14.01,2013-09-06 21:19:00,
2013-09-06 17:24:00,67.7,39.8,30.16,WNW,303,0.0,1.0,36,0.00,,,0.00,VWS V14.01,2013-09-06 21:24:00,
2013-09-06 17:29:00,67.6,41.1,30.16,WNW,303,0.0,1.0,38,0.00,,,0.00,VWS V14.01,2013-09-06 21:29:00,
2013-09-06 17:34:00,67.4,40.9,30.16,WNW,303,2.0,3.0,38,0.00,,,0.00,VWS V14.01,2013-09-06 21:34:00,
2013-09-06 17:39:00,67.2,41.4,30.16,NNW,327,0.0,3.0,39,0.00,,,0.00,VWS V14.01,2013-09-06 21:39:00,
2013-09-06 17:44:00,67.0,42.5,30.16,NNW,327,0.0,0.0,41,0.00,,,0.00,VWS V14.01,2013-09-06 21:44:00,
2013-09-06 17:49:00,66.8,41.7,30.16,NNW,327,0.0,1.0,40,0.00,,,0.00,VWS V14.01,2013-09-06 21:49:00,
2013-09-06 17:54:00,66.5,42.1,30.16,NNW,327,0.0,0.0,41,0.00,,,0.00,VWS V14.01,2013-09-06 21:54:00,
2013-09-06 17:59:00,66.0,42.9,30.16,NNW,327,0.0,0.0,43,0.00,,,0.00,VWS V14.01,2013-09-06 21:59:00,
2013-09-06 18:04:00,65.7,43.2,30.16,NNW,327,0.0,0.0,44,0.00,,,0.00,VWS V14.01,2013-09-06 22:04:00,
2013-09-06 18:09:00,65.4,45.2,30.16,NNW,327,0.0,1.0,48,0.00,,,0.00,VWS V14.01,2013-09-06 22:09:00,
2013-09-06 18:14:00,65.1,46.0,30.16,NNW,327,0.0,0.0,50,0.00,,,0.00,VWS V14.01,2013-09-06 22:14:00,
2013-09-06 18:19:00,64.9,45.8,30.16,NNW,327,0.0,0.0,50,0.00,,,0.00,VWS V14.01,2013-09-06 22:19:00,
2013-09-06 18:24:00,64.6,45.6,30.16,NNW,327,0.0,0.0,50,0.00,,,0.00,VWS V14.01,2013-09-06 22:24:00,
2013-09-06 18:29:00,64.4,46.4,30.16,NNW,327,0.0,0.0,52,0.00,,,0.00,VWS V14.01,2013-09-06 22:29:00,
2013-09-06 18:34:00,64.1,46.6,30.15,NNW,327,0.0,0.0,53,0.00,,,0.00,VWS V14.01,2013-09-06 22:34:00,
2013-09-06 18:39:00,63.8,45.9,30.15,NNW,327,0.0,0.0,52,0.00,,,0.00,VWS V14.01,2013-09-06 22:39:00,
2013-09-06 18:44:00,63.5,46.1,30.15,NNW,327,0.0,0.0,53,0.00,,,0.00,VWS V14.01,2013-09-06 22:44:00,
2013-09-06 18:49:00,63.2,46.8,30.14,NNW,327,0.0,0.0,55,0.00,,,0.00,VWS V14.01,2013-09-06 22:49:00,
2013-09-06 18:54:00,62.8,47.4,30.14,NNW,327,0.0,0.0,57,0.00,,,0.00,VWS V14.01,2013-09-06 22:54:00,
2013-09-06 18:59:00,62.1,47.2,30.14,NNW,327,0.0,0.0,58,0.00,,,0.00,VWS V14.01,2013-09-06 22:59:00,
2013-09-06 19:04:00,61.8,47.3,30.14,NNW,327,0.0,0.0,59,0.00,,,0.00,VWS V14.01,2013-09-06 23:04:00,
2013-09-06 19:09:00,61.4,47.8,30.14,NNW,327,0.0,0.0,61,0.00,,,0.00,VWS V14.01,2013-09-06 23:09:00,
2013-09-06 19:14:00,60.9,48.2,30.14,NNW,327,0.0,0.0,63,0.00,,,0.00,VWS V14.01,2013-09-06 23:14:00,
2013-09-06 19:19:00,60.3,48.5,30.14,NNW,327,0.0,0.0,65,0.00,,,0.00,VWS V14.01,2013-09-06 23:19:00,
2013-09-06 19:24:00,59.9,48.5,30.14,NNW,327,0.0,0.0,66,0.00,,,0.00,VWS V14.01,2013-09-06 23:24:00,
2013-09-06 19:29:00,59.4,48.5,30.14,NNW,327,0.0,0.0,67,0.00,,,0.00,VWS V14.01,2013-09-06 23:29:00,
2013-09-06 19:34:00,58.9,48.4,30.15,NNW,327,0.0,0.0,68,0.00,,,0.00,VWS V14.01,2013-09-06 23:34:00,
2013-09-06 19:39:00,58.5,48.4,30.15,NNW,327,0.0,0.0,69,0.00,,,0.00,VWS V14.01,2013-09-06 23:39:00,
2013-09-06 19:44:00,58.2,48.5,30.15,NNW,327,0.0,0.0,70,0.00,,,0.00,VWS V14.01,2013-09-06 23:44:00,
2013-09-06 19:49:00,57.7,48.0,30.15,NNW,327,0.0,0.0,70,0.00,,,0.00,VWS V14.01,2013-09-06 23:49:00,
2013-09-06 19:54:00,57.3,48.0,30.15,NNW,327,0.0,0.0,71,0.00,,,0.00,VWS V14.01,2013-09-06 23:54:00,
2013-09-06 19:59:00,56.8,47.9,30.15,NNW,327,0.0,0.0,72,0.00,,,0.00,VWS V14.01,2013-09-06 23:59:00,
2013-09-06 20:04:00,56.4,47.9,30.15,NNW,327,0.0,0.0,73,0.00,,,0.00,VWS V14.01,2013-09-07 00:04:00,
2013-09-06 20:09:00,56.1,47.6,30.15,NNW,327,0.0,0.0,73,0.00,,,0.00,VWS V14.01,2013-09-07 00:09:00,
2013-09-06 20:14:00,55.8,47.7,30.15,NNW,327,0.0,0.0,74,0.00,,,0.00,VWS V14.01,2013-09-07 00:14:00,
2013-09-06 20:19:00,55.5,47.7,30.15,NNW,327,0.0,0.0,75,0.00,,,0.00,VWS V14.01,2013-09-07 00:19:00,
2013-09-06 20:24:00,55.1,47.3,30.15,NNW,327,0.0,0.0,75,0.00,,,0.00,VWS V14.01,2013-09-07 00:24:00,
2013-09-06 20:29:00,54.7,47.3,30.15,NNW,327,0.0,0.0,76,0.00,,,0.00,VWS V14.01,2013-09-07 00:29:00,
2013-09-06 20:34:00,54.3,47.2,30.16,NNW,327,0.0,0.0,77,0.00,,,0.00,VWS V14.01,2013-09-07 00:34:00,
2013-09-06 20:39:00,54.1,47.4,30.16,NNW,327,0.0,0.0,78,0.00,,,0.00,VWS V14.01,2013-09-07 00:39:00,
2013-09-06 20:44:00,53.8,47.5,30.16,NNW,327,0.0,0.0,79,0.00,,,0.00,VWS V14.01,2013-09-07 00:44:00,
2013-09-06 20:49:00,53.5,47.2,30.16,NNW,327,0.0,0.0,79,0.00,,,0.00,VWS V14.01,2013-09-07 00:49:00,
2013-09-06 20:54:00,53.3,47.3,30.16,NNW,327,0.0,0.0,80,0.00,,,0.00,VWS V14.01,2013-09-07 00:54:00,
2013-09-06 20:59:00,53.1,47.1,30.16,NNW,327,0.0,0.0,80,0.00,,,0.00,VWS V14.01,2013-09-07 00:59:00,
2013-09-06 21:04:00,53.0,47.3,30.15,NNW,327,0.0,0.0,81,0.00,,,0.00,VWS V14.01,2013-09-07 01:04:00,
2013-09-06 21:09:00,52.8,47.1,30.15,NNW,327,0.0,0.0,81,0.00,,,0.00,VWS V14.01,2013-09-07 01:09:00,
2013-09-06 21:14:00,52.5,47.2,30.15,NNW,327,0.0,0.0,82,0.00,,,0.00,VWS V14.01,2013-09-07 01:14:00,
2013-09-06 21:19:00,52.3,47.0,30.15,NNW,327,0.0,0.0,82,0.00,,,0.00,VWS V14.01,2013-09-07 01:19:00,
2013-09-06 21:24:00,52.1,46.8,30.15,NNW,327,0.0,0.0,82,0.00,,,0.00,VWS V14.01,2013-09-07 01:24:00,
2013-09-06 21:29:00,51.9,46.9,30.15,NNW,327,0.0,0.0,83,0.00,,,0.00,VWS V14.01,2013-09-07 01:29:00,
2013-09-06 21:34:00,51.8,46.8,30.15,NNW,327,0.0,0.0,83,0.00,,,0.00,VWS V14.01,2013-09-07 01:34:00,
2013-09-06 21:39:00,51.7,47.0,30.15,NNW,327,0.0,0.0,84,0.00,,,0.00,VWS V14.01,2013-09-07 01:39:00,
2013-09-06 21:44:00,51.5,46.8,30.15,NNW,327,0.0,0.0,84,0.00,,,0.00,VWS V14.01,2013-09-07 01:44:00,
2013-09-06 21:49:00,51.3,46.6,30.14,NNW,327,0.0,0.0,84,0.00,,,0.00,VWS V14.01,2013-09-07 01:49:00,
2013-09-06 21:54:00,51.1,46.4,30.14,NNW,327,0.0,0.0,84,0.00,,,0.00,VWS V14.01,2013-09-07 01:54:00,
2013-09-06 21:59:00,51.0,46.7,30.14,NNW,327,0.0,0.0,85,0.00,,,0.00,VWS V14.01,2013-09-07 01:59:00,
2013-09-06 22:04:00,50.8,46.5,30.14,NNW,327,0.0,0.0,85,0.00,,,0.00,VWS V14.01,2013-09-07 02:04:00,
2013-09-06 22:09:00,50.7,46.4,30.14,NNW,327,0.0,0.0,85,0.00,,,0.00,VWS V14.01,2013-09-07 02:09:00,
2013-09-06 22:14:00,50.6,46.3,30.14,NNW,327,0.0,0.0,85,0.00,,,0.00,VWS V14.01,2013-09-07 02:14:00,
2013-09-06 22:19:00,50.5,46.2,30.15,NNW,327,0.0,0.0,85,0.00,,,0.00,VWS V14.01,2013-09-07 02:19:00,
2013-09-06 22:24:00,50.4,46.4,30.15,NNW,327,0.0,0.0,86,0.00,,,0.00,VWS V14.01,2013-09-07 02:24:00,
2013-09-06 22:29:00,50.3,46.3,30.15,NNW,327,0.0,0.0,86,0.00,,,0.00,VWS V14.01,2013-09-07 02:29:00,
2013-09-06 22:34:00,50.2,46.2,30.15,NNW,327,0.0,0.0,86,0.00,,,0.00,VWS V14.01,2013-09-07 02:34:00,
2013-09-06 22:39:00,50.0,46.0,30.15,NNW,327,0.0,0.0,86,0.00,,,0.00,VWS V14.01,2013-09-07 02:39:00,
2013-09-06 22:44:00,49.9,45.9,30.15,NNW,327,0.0,0.0,86,0.00,,,0.00,VWS V14.01,2013-09-07 02:44:00,
2013-09-06 22:49:00,49.8,46.1,30.15,NNW,327,0.0,0.0,87,0.00,,,0.00,VWS V14.01,2013-09-07 02:49:00,
2013-09-06 22:54:00,49.7,46.0,30.15,NNW,327,0.0,0.0,87,0.00,,,0.00,VWS V14.01,2013-09-07 02:54:00,
2013-09-06 22:59:00,49.6,45.9,30.15,NNW,327,0.0,0.0,87,0.00,,,0.00,VWS V14.01,2013-09-07 02:59:00,
2013-09-06 23:04:00,49.6,45.9,30.14,NNW,327,0.0,0.0,87,0.00,,,0.00,VWS V14.01,2013-09-07 03:04:00,
2013-09-06 23:09:00,49.5,45.8,30.14,NNW,327,0.0,0.0,87,0.00,,,0.00,VWS V14.01,2013-09-07 03:09:00,
2013-09-06 23:14:00,49.4,45.7,30.14,NNW,327,0.0,0.0,87,0.00,,,0.00,VWS V14.01,2013-09-07 03:14:00,
2013-09-06 23:19:00,49.3,45.6,30.14,NNW,327,0.0,0.0,87,0.00,,,0.00,VWS V14.01,2013-09-07 03:19:00,
2013-09-06 23:24:00,49.2,45.5,30.14,NNW,327,0.0,0.0,87,0.00,,,0.00,VWS V14.01,2013-09-07 03:24:00,
2013-09-06 23:29:00,49.1,45.7,30.14,NNW,327,0.0,0.0,88,0.00,,,0.00,VWS V14.01,2013-09-07 03:29:00,
2013-09-06 23:34:00,49.0,45.6,30.13,NNW,327,0.0,0.0,88,0.00,,,0.00,VWS V14.01,2013-09-07 03:34:00,
2013-09-06 23:39:00,49.0,45.6,30.13,NNW,327,0.0,0.0,88,0.00,,,0.00,VWS V14.01,2013-09-07 03:39:00,
2013-09-06 23:44:00,49.0,45.9,30.13,NNW,327,0.0,0.0,89,0.00,,,0.00,VWS V14.01,2013-09-07 03:44:00,
2013-09-06 23:49:00,48.9,45.8,30.13,NNW,327,0.0,0.0,89,0.00,,,0.00,VWS V14.01,2013-09-07 03:49:00,
2013-09-06 23:54:00,48.8,45.7,30.13,NNW,327,0.0,0.0,89,0.00,,,0.00,VWS V14.01,2013-09-07 03:54:00,
2013-09-06 23:59:00,48.8,45.7,30.13,NNW,327,0.0,0.0,89,0.00,,,0.00,VWS V14.01,2013-09-07 03:59:00,